Regional Weather Roundup
Issued by NWS

Home | Current Version | Previous Version | Text Only | Print | Product List | Glossary Off
Versions: 1 2 3 4 5 6 7 8 9 10 11 12 13 14 15 16 17 18 19 20 21 22 23 24 25 26 27 28 29 30 31 32 33 34 35 36 37 38 39 40 41 42 43 44 45 46 47 48 49 50

000
ASUS43 KLMK 260010
RWRKY
KENTUCKY REGIONAL WEATHER ROUNDUP
NATIONAL WEATHER SERVICE LOUISVILLE KY
800 PM EDT SUN SEP 25 2016

NOTE "FAIR" INDICATES FEW OR NO CLOUDS BELOW 12,000 FEET
WITH NO SIGNIFICANT WEATHER AND/OR OBSTRUCTIONS TO VISIBILITY.

KYZ001>023-026-027-061>063-070>075-260100-
WESTERN AND SOUTH CENTRAL KENTUCKY

CITY           SKY/WX    TMP DP  RH WIND       PRES   REMARKS
PADUCAH        CLEAR     79  68  69 SE5       29.98S
HENDERSON      CLEAR     81  66  61 CALM      29.97S
OWENSBORO      CLEAR    N/A N/A N/A SE7       29.99S
HOPKINSVILLE   CLEAR     82  66  58 N3        30.01R
BOWLING GREEN  CLEAR     81  65  58 SE3       30.00F
GLASGOW        CLEAR     74  66  77 CALM      30.02S
$$

KYZ024-025-028>034-038-045-046-053-260100-
NORTH CENTRAL KENTUCKY

CITY           SKY/WX    TMP DP  RH WIND       PRES   REMARKS
LOUISVILLE/SDF PTCLDY    85  61  44 SW5       30.00R
LOUISVILLE/LOU CLEAR     84  64  50 CALM      30.00F
FORT KNOX      CLEAR     75  67  74 CALM      30.00S
$$

KYZ035>037-039>044-047>052-055>060-089>105-260100-
NORTHEAST KENTUCKY

CITY           SKY/WX    TMP DP  RH WIND       PRES   REMARKS
LEXINGTON      MOCLDY    82  63  52 E5        30.04S
COVINGTON      NOT AVBL
FRANKFORT      CLEAR     79  64  60 E5        30.02S
$$

KYZ054-064>069-076>088-106>120-260100-
SOUTHEAST KENTUCKY

CITY           SKY/WX    TMP DP  RH WIND       PRES   REMARKS
JACKSON        CLEAR     77  65  66 CALM      30.07S
LONDON         CLEAR     78  63  59 CALM      30.06R
SOMERSET       CLEAR     77  64  65 CALM      30.05S
MIDDLESBORO    CLEAR     75  68  78 W7        30.07R
MONTICELLO     CLEAR     73  63  70 VRB7      30.06R
$$




USA.gov is the U.S. government's official web portal to all federal, state and local government web resources and services.